ARIANE 3 DEB, 33537

Orbit data source: Space-Track

ARIANE 3 DEB, 33537 is space debris in HEO originally from a launch on Thu, 08 Sep 1988 UTC launched from the French Guiana (FRGUI). Debris objects in space refer to the collection of defunct objects orbiting the Earth. Examples of debris include non-operational satellites, rocket bodies, and fragments generated from explosions, collisions, or faulty payload assembly.

Loading next visibility...
Identifier
33537, 1988-081M
Orbit
HEO
Country
Flag of FRFR
Related business
Manufacturer
Unknown
Mission
Spacecraft
Bus & Motor
Unknown
Mass
Unknown
Launch date (UTC)
1988-09-08 (37 years ago)
Launch vehicle
Unknown
Launch site
French Guiana (FRGUI)
Object type
Payload
Rocket body
Debris
Shape & HBR
Unknown shape, 1.1 m
Radar Cross Section
Medium (>0.1 m² and <1 m²)

Expand to show TLE details & history
Last TLE update: 1 week ago

TLE from 1 week ago
0 ARIANE 3 DEB
1 33537U 88081M   26026.56502743 -.00000053  00000-0  00000+0 0  9992
2 33537   6.2726 145.7894 6982475  37.7066   6.7552  2.16844382101548
Epoch: 2026-01-26T13:33Z
TLE epoch observation values (Epoch: 2026-01-26T13:33:38.369Z)
Latitude
6.28264°
Longitude
-97.01441°
Altitude
2,485.181 km
Speed
8.61 km/s
True Right ascension
15h 29m 01s
True Declination
6° 15' 09"
Sunlit
Object was in daylight at epoch
Visualization orbit readout
Latitude
Unknown
Longitude
Unknown
Altitude
Unknown
Speed
Unknown
Apparent Right ascension
Unknown
Apparent Declination
Unknown
Sunlit
N/A
Visualization observer readout
Local Sidereal Time
12:16:04
Azimuth
Unknown
Elevation
Unknown
Doppler factor
Unknown
Orbital elements
Apogee altitude
36,448.916 km
Perigee altitude
1,231.573 km
Semi-major axis
25,218.381 km
Eccentricity
0.69825
Inclination
6.2726°
RAAN
145.7894°
Arg. of periapsis
37.7066°
True anomaly
48.01212°
Mean anomaly
6.7552°
Eccentric anomaly
21.26468°
Mean motion
0.54196 °/min
Orbital period
664.26 mins
BSTAR
0
Loading maneuver chart data...
Computing Atmospheric mass density...
Loading historical data...
Loading historical data...
Loading historical data...
Loading historical data...
Loading historical data...
Loading historical data...
Loading historical data...

Documentation

Showing up to 5 results
|